Tracking 35048 objects as of 19-Aug-2026
HD Live streaming from Space Station
objects crossing your sky now

INTELSAT 33E DEB

Track INTELSAT 33E DEB now!


NORAD ID: 62005
Int'l Code: 2016-053X
Launch date: August 24, 2016
Source: International Telecommunications Satellite Organization (ITSO)
Launch site: FRENCH GUIANA (FRGUI)

Note: This is SATELLITE DEBRIS
Your satellite tracking list
Your tracking list is empty




NASA's NSSDC Master Catalog

Two Line Element Set (TLE):
1 62005U 16053X   26230.43674783 -.00000109  00000-0  00000-0 0  9994
2 62005   1.8808  94.3128 0272407 253.6160 103.5986  1.04573288  6963
Source of the keplerian elements: AFSPC